Location: Isle of Man Observatory
(54.1776°N, 4.6264°W)
Time: 15:42:52
(UTC+02:00)

ARIANE 6 FM1 Upper Stage - Pass Details

Date: 21 April 2026
Orbit: 526 x 601 km, 62.0° (Epoch: 19 May)

Event Time Altitude Azimuth Distance (km) Brightness Sun altitude
Rises 23:30:58 0° 298° (WNW) 2,696 7.6 -15.0°
Reaches altitude 10° 23:33:25 10° 310° (NW) 1,794 6.6 -15.2°
Maximum altitude 23:36:57 29° 11° (NNE) 995 4.3 -15.6°
Drops below altitude 10° 23:40:28 10° 73° (ENE) 1,776 5.0 -15.9°
Enters shadow 23:40:51 - 76° (ENE) 1,908 5.1 -15.9°
